Previsão horária em Alkadar

Hoje, 16 Junho, Quarta-feira

Tempo Temperatura Precipitação Vento Pressão Humidade
00:00 +19°C° 0 mm 2 m/s 703 mmHg 70%
01:00 +19°C° 0 mm 2 m/s 703 mmHg 67%
02:00 +20°C° 0 mm 2 m/s 703 mmHg 64%
03:00 +20°C° 0 mm 2 m/s 703 mmHg 61%
04:00 +22°C° 0 mm 1 m/s 704 mmHg 59%
05:00 +23°C° 0 mm 1 m/s 704 mmHg 58%
06:00 +24°C° 0 mm 1 m/s 704 mmHg 57%
07:00 +25°C° 0 mm 1 m/s 704 mmHg 54%
08:00 +27°C° 0 mm 2 m/s 704 mmHg 52%
09:00 +28°C° 0 mm 2 m/s 704 mmHg 49%
10:00 +29°C° 0 mm 3 m/s 704 mmHg 48%
11:00 +30°C° 0 mm 3 m/s 704 mmHg 47%
12:00 +32°C° 0 mm 4 m/s 704 mmHg 46%
13:00 +32°C° 0 mm 4 m/s 704 mmHg 47%
14:00 +32°C° 0 mm 4 m/s 703 mmHg 48%
15:00 +31°C° 0 mm 3 m/s 703 mmHg 49%
16:00 +30°C° 0 mm 3 m/s 703 mmHg 52%
17:00 +29°C° 0 mm 3 m/s 703 mmHg 55%
18:00 +29°C° 0 mm 2 m/s 703 mmHg 58%
19:00 +27°C° 0 mm 2 m/s 702 mmHg 60%
20:00 +25°C° 0 mm 2 m/s 702 mmHg 62%
21:00 +23°C° 0 mm 2 m/s 702 mmHg 64%
22:00 +23°C° 0 mm 2 m/s 702 mmHg 60%
23:00 +23°C° 0 mm 2 m/s 701 mmHg 55%

Amanhã, 17 Junho, Quinta-feira

Tempo Temperatura Precipitação Vento Pressão Humidade
00:00 +22°C° 0 mm 3 m/s 701 mmHg 51%
01:00 +22°C° 0 mm 3 m/s 701 mmHg 48%
02:00 +22°C° 0 mm 3 m/s 700 mmHg 45%
03:00 +22°C° 0 mm 3 m/s 700 mmHg 42%
04:00 +24°C° 0 mm 3 m/s 700 mmHg 42%
05:00 +25°C° 0 mm 3 m/s 700 mmHg 41%
06:00 +26°C° 0 mm 3 m/s 700 mmHg 40%
07:00 +28°C° 0 mm 3 m/s 700 mmHg 34%
08:00 +31°C° 0 mm 3 m/s 700 mmHg 28%
09:00 +35°C° 0 mm 3 m/s 700 mmHg 23%
10:00 +36°C° 0 mm 3 m/s 700 mmHg 22%
11:00 +37°C° 0 mm 3 m/s 700 mmHg 21%
12:00 +40°C° 0 mm 4 m/s 700 mmHg 20%
13:00 +40°C° 0 mm 4 m/s 700 mmHg 20%
14:00 +39°C° 0 mm 5 m/s 700 mmHg 21%
15:00 +39°C° 0 mm 5 m/s 700 mmHg 21%
16:00 +36°C° 0 mm 5 m/s 701 mmHg 29%
17:00 +33°C° 0 mm 4 m/s 702 mmHg 37%
18:00 +29°C° 0 mm 4 m/s 703 mmHg 45%
19:00 +27°C° 0 mm 3 m/s 703 mmHg 50%
20:00 +26°C° 0 mm 3 m/s 704 mmHg 54%
21:00 +24°C° 0 mm 3 m/s 704 mmHg 59%
22:00 +24°C° 0 mm 2 m/s 705 mmHg 63%
23:00 +23°C° 0 mm 2 m/s 705 mmHg 67%

Depois de amanhã, 18 Junho, Sexta-feira

Tempo Temperatura Precipitação Vento Pressão Humidade
00:00 +23°C° 0 mm 2 m/s 705 mmHg 71%
01:00 +21°C° 0 mm 2 m/s 705 mmHg 73%
02:00 +21°C° 0 mm 2 m/s 705 mmHg 75%
03:00 +22°C° 0 mm 1 m/s 706 mmHg 77%
04:00 +23°C° 0 mm 1 m/s 706 mmHg 74%
05:00 +24°C° 0 mm 1 m/s 706 mmHg 70%
06:00 +25°C° 0 mm 1 m/s 706 mmHg 67%
07:00 +26°C° 0 mm 2 m/s 706 mmHg 63%
08:00 +27°C° 0 mm 3 m/s 707 mmHg 60%
09:00 +28°C° 0 mm 4 m/s 707 mmHg 56%
10:00 +28°C° 0.1 mm 4 m/s 707 mmHg 57%
11:00 +28°C° 0.1 mm 4 m/s 707 mmHg 58%
12:00 +28°C° 0.1 mm 4 m/s 707 mmHg 59%
13:00 +27°C° 0.4 mm 4 m/s 707 mmHg 60%
14:00 +27°C° 0.4 mm 3 m/s 708 mmHg 61%
15:00 +26°C° 0.4 mm 3 m/s 708 mmHg 63%
16:00 +26°C° 0.1 mm 3 m/s 708 mmHg 63%
17:00 +26°C° 0.1 mm 2 m/s 708 mmHg 64%
18:00 +25°C° 0.1 mm 2 m/s 708 mmHg 65%
19:00 +24°C° 0 mm 2 m/s 708 mmHg 68%
20:00 +23°C° 0 mm 2 m/s 708 mmHg 71%
21:00 +21°C° 0 mm 2 m/s 708 mmHg 75%
22:00 +21°C° 0 mm 2 m/s 708 mmHg 74%
23:00 +20°C° 0 mm 2 m/s 708 mmHg 73%

19 Junho, Sábado

Tempo Temperatura Precipitação Vento Pressão Humidade
00:00 +20°C° 0 mm 3 m/s 708 mmHg 73%
01:00 +20°C° 0 mm 2 m/s 708 mmHg 72%
02:00 +20°C° 0 mm 2 m/s 708 mmHg 71%
03:00 +20°C° 0 mm 2 m/s 708 mmHg 70%
04:00 +21°C° 0 mm 2 m/s 708 mmHg 66%
05:00 +23°C° 0 mm 2 m/s 708 mmHg 62%
06:00 +24°C° 0 mm 1 m/s 709 mmHg 59%
07:00 +26°C° 0 mm 2 m/s 709 mmHg 55%
08:00 +27°C° 0 mm 2 m/s 709 mmHg 50%
09:00 +29°C° 0 mm 2 m/s 709 mmHg 46%
10:00 +29°C° 0 mm 3 m/s 709 mmHg 45%
11:00 +30°C° 0 mm 3 m/s 709 mmHg 44%
12:00 +32°C° 0 mm 4 m/s 709 mmHg 42%
13:00 +32°C° 0 mm 4 m/s 709 mmHg 43%
14:00 +32°C° 0 mm 4 m/s 709 mmHg 45%
15:00 +32°C° 0 mm 4 m/s 709 mmHg 46%
16:00 +30°C° 0 mm 3 m/s 709 mmHg 49%
17:00 +29°C° 0 mm 3 m/s 709 mmHg 52%
18:00 +28°C° 0 mm 3 m/s 709 mmHg 55%
19:00 +26°C° 0 mm 2 m/s 709 mmHg 60%
20:00 +25°C° 0 mm 2 m/s 709 mmHg 65%
21:00 +23°C° 0 mm 2 m/s 709 mmHg 70%
22:00 +23°C° 0 mm 2 m/s 709 mmHg 70%
23:00 +21°C° 0 mm 2 m/s 708 mmHg 69%

20 Junho, Domingo

Tempo Temperatura Precipitação Vento Pressão Humidade
00:00 +21°C° 0 mm 2 m/s 708 mmHg 68%
01:00 +21°C° 0 mm 2 m/s 708 mmHg 68%
02:00 +21°C° 0 mm 2 m/s 708 mmHg 67%
03:00 +21°C° 0 mm 2 m/s 708 mmHg 67%
04:00 +23°C° 0 mm 2 m/s 709 mmHg 63%
05:00 +24°C° 0 mm 2 m/s 709 mmHg 59%
06:00 +25°C° 0 mm 1 m/s 709 mmHg 55%
07:00 +27°C° 0 mm 2 m/s 709 mmHg 49%
08:00 +29°C° 0 mm 2 m/s 709 mmHg 42%
09:00 +31°C° 0 mm 2 m/s 709 mmHg 36%
10:00 +33°C° 0 mm 3 m/s 709 mmHg 34%
11:00 +33°C° 0 mm 3 m/s 709 mmHg 33%
12:00 +34°C° 0 mm 4 m/s 709 mmHg 32%
13:00 +34°C° 0 mm 4 m/s 709 mmHg 34%
14:00 +34°C° 0 mm 4 m/s 708 mmHg 35%
15:00 +33°C° 0 mm 4 m/s 708 mmHg 37%
16:00 +32°C° 0 mm 4 m/s 708 mmHg 42%
17:00 +30°C° 0 mm 3 m/s 708 mmHg 48%
18:00 +28°C° 0 mm 3 m/s 708 mmHg 53%
19:00 +26°C° 0 mm 2 m/s 708 mmHg 58%
20:00 +25°C° 0 mm 2 m/s 709 mmHg 62%
21:00 +23°C° 0 mm 1 m/s 709 mmHg 67%
22:00 +22°C° 0 mm 1 m/s 708 mmHg 65%
23:00 +22°C° 0 mm 1 m/s 708 mmHg 63%

21 Junho, Segunda-feira

Tempo Temperatura Precipitação Vento Pressão Humidade
00:00 +22°C° 0 mm 1 m/s 708 mmHg 60%
01:00 +21°C° 0 mm 2 m/s 708 mmHg 59%
02:00 +21°C° 0 mm 2 m/s 708 mmHg 57%
03:00 +21°C° 0 mm 2 m/s 708 mmHg 56%
04:00 +23°C° 0 mm 2 m/s 708 mmHg 54%
05:00 +24°C° 0 mm 1 m/s 708 mmHg 52%
06:00 +25°C° 0 mm 1 m/s 708 mmHg 49%
07:00 +27°C° 0 mm 2 m/s 708 mmHg 44%
08:00 +29°C° 0 mm 2 m/s 708 mmHg 38%
09:00 +31°C° 0 mm 3 m/s 708 mmHg 33%
10:00 +33°C° 0 mm 3 m/s 708 mmHg 30%
11:00 +34°C° 0 mm 4 m/s 708 mmHg 27%
12:00 +36°C° 0 mm 5 m/s 708 mmHg 24%
13:00 +35°C° 0 mm 5 m/s 708 mmHg 23%
14:00 +35°C° 0 mm 5 m/s 708 mmHg 22%
15:00 +35°C° 0 mm 5 m/s 707 mmHg 21%
16:00 +33°C° 0 mm 4 m/s 707 mmHg 25%
17:00 +31°C° 0 mm 3 m/s 707 mmHg 28%
18:00 +30°C° 0 mm 2 m/s 707 mmHg 32%
19:00 +28°C° 0 mm 2 m/s 707 mmHg 35%
20:00 +26°C° 0 mm 2 m/s 707 mmHg 38%
21:00 +23°C° 0 mm 2 m/s 707 mmHg 41%
22:00 +23°C° 0 mm 2 m/s 706 mmHg 41%
23:00 +23°C° 0 mm 2 m/s 706 mmHg 41%
Mostrar mais